Weather History for Sacramento, CA

Change the Weather History Date:

Saturday, October 18, 2014

  Actual Average Record
Temperature  
Mean Temperature 67 °F -  
Max Temperature 81 °F 77 °F 93 °F (1988)
Min Temperature 53 °F 50 °F 40 °F (1971)
Degree Days  
Heating Degree Days 0    
Cooling Degree Days 2    
Growing Degree Days 18 (Base 50)    
Moisture  
Dew Point 52 °F    
Average Humidity 60    
Maximum Humidity 86    
Minimum Humidity 33    
Precipitation  
Precipitation 0.00 in 0.04 in 0.27 in (1953)
Month to date precipitation 0.17 0.41  
Year to date precipitation 8.53 12.65  
Since 1 July precipitation 0.64 0.75  
Sea Level Pressure  
Sea Level Pressure 29.93 in    
Wind  
Wind Speed 2 mph (NW)    
Max Wind Speed 10 mph    
Max Gust Speed 15 mph    
Visibility 10 miles    
Events      
T = Trace of Precipitation, MM = Missing Value Source: NWS Daily Summary

Daily Weather History Graph

Daily Weather History Graph

Search for Another Location

Airport:

Trip Planner

Search our weather history database for the weather conditions in past years. The results will help you decide how hot, cold, wet, or windy it might be!

Date:

Astronomy

Oct. 18, 2014 Rise Set
Actual Time 7:18 AM PDT 6:23 PM PDT
Civil Twilight 6:51 AM PDT 6:50 PM PDT
Nautical Twilight 6:20 AM PDT 7:21 PM PDT
Astronomical Twilight 5:49 AM PDT 7:51 PM PDT
Moon 2:24 AM PDT (10/18) 3:43 PM PDT (10/18)
Length of Visible Light 11h 59m
Length of Day
11h 05m
Waning Crescent, 23% of the Moon is Illuminated
Oct 18
Waning Crescent
Oct 23
New
Oct 30
First Quarter
Nov 6
Full
Nov 14
Last Quarter

Hourly Weather History & Observations

Time (PDT) Temp. Dew Point Humidity Pressure Visibility Wind Dir Wind Speed Gust Speed Precip Events Conditions
12:53 AM 57.0 °F 52.0 °F 83% 29.98 in 10.0 mi Calm Calm - N/A   Clear
1:53 AM 57.0 °F 52.0 °F 83% 29.98 in 10.0 mi Calm Calm - N/A   Clear
2:53 AM 55.9 °F 51.1 °F 84% 29.98 in 10.0 mi Calm Calm - N/A   Clear
3:53 AM 55.9 °F 51.1 °F 84% 29.97 in 10.0 mi Calm Calm - N/A   Clear
4:53 AM 55.0 °F 51.1 °F 86% 29.97 in 10.0 mi Calm Calm - N/A   Clear
5:53 AM 55.4 °F 51.8 °F 88% 29.98 in 10.0 mi North - - N/A   Clear
6:53 AM 55.0 °F 51.1 °F 86% 29.98 in 10.0 mi Calm Calm - N/A   Clear
7:53 AM 55.9 °F 52.0 °F 87% 29.98 in 10.0 mi Calm Calm - N/A   Clear
8:53 AM 62.1 °F 51.1 °F 67% 29.99 in 10.0 mi NW 5.8 mph - N/A   Clear
9:53 AM 66.9 °F 51.1 °F 57% 29.99 in 10.0 mi North 6.9 mph - N/A   Clear
10:53 AM 70.0 °F 50.0 °F 49% 29.98 in 10.0 mi NNW 6.9 mph - N/A   Clear
11:53 AM 73.4 °F 51.8 °F 47% 29.96 in 10.0 mi NNW 5.8 mph - N/A   Clear
12:53 PM 75.9 °F 50.0 °F 40% 29.94 in 10.0 mi North 5.8 mph - N/A   Clear
1:53 PM 78.1 °F 50.0 °F 37% 29.91 in 10.0 mi NW 6.9 mph - N/A   Clear
2:53 PM 79.0 °F 50.0 °F 36% 29.89 in 10.0 mi Calm Calm - N/A   Clear
3:53 PM 80.1 °F 48.9 °F 34% 29.87 in 10.0 mi Variable 3.5 mph - N/A   Clear
4:53 PM 81.0 °F 48.9 °F 33% 29.86 in 10.0 mi NNW 3.5 mph - N/A   Clear
5:53 PM 77.0 °F 50.0 °F 39% 29.86 in 10.0 mi Calm Calm - N/A   Clear
6:53 PM 71.1 °F 52.0 °F 51% 29.86 in 10.0 mi South 3.5 mph - N/A   Clear
7:53 PM 68.0 °F 53.1 °F 59% 29.87 in 10.0 mi Calm Calm - N/A   Clear
8:53 PM 69.1 °F 55.9 °F 63% 29.88 in 10.0 mi SSW 4.6 mph - N/A   Clear
9:53 PM 66.0 °F 57.0 °F 73% 29.88 in 10.0 mi Calm Calm - N/A   Clear
10:53 PM 64.0 °F 57.0 °F 78% 29.88 in 10.0 mi SSW 3.5 mph - N/A   Clear
11:53 PM 64.0 °F 57.0 °F 78% 29.88 in 10.0 mi Calm Calm - N/A   Clear